Overview Statistics Trail Chart Weather Telemetry Raw packets
 

This is the latest recevied weather packets stored in our database for station/object EA1GEC-10. If no packets are shown the sender has not sent any weather packets the latest 10 day(s).

<< 25 26 27 28 29 30 31 >>
Time Temp. Humidity Pressure Rain* Wind** Luminosity Snow
1777204494 27.22° C 44% 1026.3 hPa - - - -
1777203594 23.89° C 47% 1026.4 hPa - - - -
1777202694 22.78° C 48% 1026.6 hPa - - - -
1777201803 22.78° C 49% 1026.5 hPa - - - -
1777200894 21.67° C 52% 1026.7 hPa - - - -
1777199993 20.56° C 53% 1026.7 hPa - - - -
1777199093 20.56° C 54% 1027 hPa - - - -
1777198193 20° C 55% 1027 hPa - - - -
1777197293 19.44° C 56% 1027 hPa - - - -
1777196393 18.89° C 57% 1027 hPa - - - -
1777195493 18.89° C 57% 1027.1 hPa - - - -
1777194593 18.89° C 57% 1027.1 hPa - - - -
1777193705 18.89° C 58% 1026.9 hPa - - - -
1777192793 18.33° C 60% 1026.9 hPa - - - -
1777191893 17.22° C 62% 1026.9 hPa - - - -
1777190993 17.22° C 62% 1027 hPa - - - -
1777190093 17.22° C 64% 1026.9 hPa - - - -
1777189192 16.67° C 67% 1026.9 hPa - - - -
1777188292 16.67° C 70% 1026.7 hPa - - - -
1777187392 16.67° C 73% 1026.5 hPa - - - -
1777186492 16.11° C 73% 1026.5 hPa - - - -
1777185592 16.11° C 74% 1026.4 hPa - - - -
1777184692 16.11° C 73% 1026.3 hPa - - - -
1777183792 15.56° C 73% 1026.1 hPa - - - -
1777182892 15.56° C 73% 1026.1 hPa - - - -

* Rain since midnight (hover to see other rain measurements)
** Current wind speed in m/s (hover to see current wind gust speed)